User: anonymous   Login
Location: Berg
(48.5667°N, 13.9833°E)
Time: 21:08:09
(UTC+00:00)
Language:

Cosmos 1455 - Orbit

View from above orbital plane
View from above orbital plane
View from above satellite
View from above satellite

Ground track
Ground track

The orbit data is extracted from the following two-line orbital elements,

1 14032U 83037A   20185.18142679  .00000237  00000-0  98672-5 0  9994
2 14032  82.5160  68.0579 0017493  18.2779 341.9080 15.18309033 30053
Epoch (UTC): 03 July 2020 04:21:15
Eccentricity: 0.0017493
inclination: 82.5160°
perigee height: 499 km
apogee height: 523 km
right ascension of ascending node: 68.0579°
argument of perigee: 18.2779°
revolutions per day: 15.18309033
mean anomaly at epoch: 341.9080°
orbit number at epoch: 3005

The dashed part of the orbit path shows where the satellite is in the earth's shadow,  

DLR